FW3877 Weather Reports


Display with metric or nautical units.
time (UTC)temp
F
wind
direction
speed
MPH
gust
MPH
rain 1hr
in
rain 24hr
in
rain mn
in
humidity
%
barometer
mb
20260903133203 60 232 10.0 16.0 0.02 0.13 0.07 92 1010.3
20260903132704 60 245 10.0 15.0 0.02 0.13 0.07 92 1010.5
20260903132203 60 243 9.0 16.0 0.02 0.13 0.07 92 1010.4
20260903131204 60 230 8.0 16.0 0.02 0.13 0.07 92 1010.5
20260903130703 60 234 11.0 18.0 0.01 0.12 0.06 91 1010.6
20260903125704 60 235 9.0 14.0 0.01 0.12 0.06 91 1010.4
20260903125204 60 233 9.0 20.0 0.01 0.12 0.06 90 1010.5
20260903124704 60 237 9.0 15.0 0.01 0.12 0.06 90 1010.6
20260903124204 61 239 7.0 13.0 0.01 0.12 0.06 90 1010.6
20260903123704 61 230 7.0 14.0 0.01 0.12 0.06 89 1010.6
20260903123204 61 232 7.0 15.0 0.00 0.11 0.06 88 1010.5
20260903122703 61 246 7.0 15.0 0.00 0.11 0.06 87 1010.3
20260903122204 61 257 9.0 14.0 0.00 0.11 0.06 87 1010.3
20260903121704 61 245 7.0 16.0 0.00 0.11 0.06 86 1010.2
20260903121203 61 239 9.0 17.0 0.00 0.11 0.06 85 1010.3
20260903120704 62 237 12.0 21.0 0.00 0.11 0.06 85 1010.5
20260903120203 62 243 11.0 17.0 0.00 0.11 0.06 85 1010.3
20260903115704 62 248 12.0 20.0 0.00 0.11 0.06 85 1010.4
20260903115203 62 239 12.0 21.0 0.00 0.11 0.06 85 1010.1
20260903114704 63 244 10.0 20.0 0.00 0.11 0.06 85 1010.0
20260903114204 63 238 10.0 18.0 0.00 0.11 0.06 85 1010.0
20260903113704 62 242 12.0 20.0 0.00 0.11 0.06 84 1009.9
20260903113204 63 230 13.0 20.0 0.00 0.11 0.06 85 1009.9
20260903112704 63 230 10.0 18.0 0.00 0.11 0.06 86 1009.8
20260903112204 63 242 11.0 22.0 0.00 0.11 0.06 86 1010.1
20260903111704 63 244 10.0 20.0 0.00 0.11 0.06 87 1010.1
20260903111203 62 233 10.0 22.0 0.00 0.11 0.06 88 1010.1
20260903110704 62 239 10.0 20.0 0.00 0.11 0.06 87 1010.1
20260903110204 62 237 10.0 18.0 0.00 0.11 0.06 88 1010.0
20260903105703 62 260 12.0 18.0 0.00 0.11 0.06 88 1010.0
20260903105204 63 244 10.0 16.0 0.00 0.11 0.06 88 1009.9
20260903104703 63 238 9.0 20.0 0.00 0.11 0.06 88 1009.7
20260903104203 64 238 12.0 20.0 0.00 0.11 0.06 89 1009.8
20260903103704 63 241 10.0 22.0 0.00 0.11 0.06 89 1009.6
20260903103203 64 237 13.0 22.0 0.00 0.11 0.06 89 1009.6
20260903102205 64 228 13.0 21.0 0.00 0.11 0.06 91 1009.3
20260903101704 64 225 9.0 18.0 0.00 0.11 0.06 92 1009.3
20260903101204 63 231 12.0 18.0 0.01 0.11 0.06 92 1009.3
20260903100703 63 248 10.0 16.0 0.01 0.11 0.06 93 1009.2
20260903100204 63 251 9.0 15.0 0.02 0.11 0.06 94 1009.5
20260903095704 62 242 10.0 18.0 0.02 0.11 0.06 94 1009.5
20260903095204 62 244 10.0 17.0 0.02 0.11 0.06 94 1009.9
20260903094704 62 216 7.0 15.0 0.02 0.11 0.06 95 1009.9
20260903094204 61 242 6.0 12.0 0.02 0.11 0.06 95 1009.9
20260903093204 61 219 10.0 14.0 0.02 0.11 0.06 95 1010.0
20260903092704 60 247 10.0 16.0 0.02 0.11 0.06 95 1010.1
20260903092204 60 214 8.0 15.0 0.02 0.11 0.06 94 1010.2
20260903091703 60 190 8.0 15.0 0.02 0.11 0.06 94 1010.1
20260903090703 59 201 9.0 15.0 0.02 0.10 0.05 94 1010.1
20260903090203 59 203 9.0 16.0 0.02 0.10 0.04 94 1010.2
20260903085203 59 196 7.0 12.0 0.02 0.10 0.04 94 1010.2
20260903084704 59 204 7.0 12.0 0.02 0.10 0.04 94 1010.1
20260903084204 58 218 7.0 14.0 0.02 0.10 0.04 95 1010.3
20260903083704 58 192 5.0 9.0 0.02 0.11 0.04 94 1010.3
20260903083204 58 192 4.0 6.0 0.02 0.11 0.04 94 1010.4
20260903081704 58 226 5.0 9.0 0.02 0.12 0.04 94 1010.3
20260903081204 58 206 5.0 8.0 0.02 0.12 0.03 94 1010.4
20260903080703 58 188 7.0 12.0 0.01 0.11 0.02 94 1010.6
20260903080203 58 216 5.0 9.0 0.00 0.11 0.02 94 1010.5
20260903075703 58 215 6.0 9.0 0.00 0.11 0.02 94 1010.5
20260903075204 58 214 5.0 9.0 0.00 0.11 0.02 94 1010.5
20260903074704 58 212 6.0 10.0 0.00 0.11 0.02 94 1010.4
20260903073704 58 228 5.0 10.0 0.00 0.11 0.02 94 1010.7
20260903072703 58 216 5.0 9.0 0.00 0.11 0.02 94 1010.6
20260903072205 58 219 5.0 9.0 0.00 0.11 0.02 94 1010.5
20260903071704 58 225 6.0 10.0 0.00 0.11 0.02 94 1010.6
20260903070204 58 220 4.0 8.0 0.00 0.11 0.02 94 1010.7
20260903065705 58 211 5.0 8.0 0.01 0.11 0.02 94 1010.8
20260903065204 57 224 5.0 8.0 0.01 0.11 0.02 94 1010.8
20260903064705 57 223 5.0 10.0 0.01 0.11 0.02 94 1010.8
20260903063704 56 209 4.0 7.0 0.01 0.11 0.02 94 1010.4
20260903063204 56 215 4.0 7.0 0.01 0.11 0.02 94 1010.7
20260903062703 55 220 4.0 6.0 0.01 0.11 0.02 94 1010.7
20260903062204 55 201 4.0 8.0 0.01 0.11 0.02 94 1010.5
20260903061705 55 211 3.0 6.0 0.01 0.11 0.02 93 1010.5
20260903061203 55 204 2.0 5.0 0.01 0.11 0.02 93 1010.4
20260903060705 55 201 2.0 5.0 0.01 0.11 0.02 93 1010.2
20260903020704 57 266 6.0 10.0 0.00 0.10 0.01 95 1010.9
20260903020204 57 263 6.0 9.0 0.00 0.10 0.01 95 1010.6
20260903015203 57 252 6.0 12.0 0.00 0.10 0.01 95 1010.6
20260903014704 57 253 6.0 12.0 0.00 0.10 0.01 95 1010.6
20260903014203 58 256 7.0 12.0 0.00 0.10 0.01 95 1010.5
20260903013704 58 247 5.0 8.0 0.00 0.10 0.01 95 1010.4
20260903013204 58 242 6.0 9.0 0.00 0.10 0.01 95 1010.5
20260903012204 58 267 6.0 9.0 0.00 0.10 0.01 95 1010.4
20260903011703 58 258 6.0 9.0 0.00 0.10 0.01 96 1010.5
20260903011204 59 248 5.0 10.0 0.00 0.10 0.01 96 1010.4
20260903010704 59 245 4.0 9.0 0.00 0.10 0.01 96 1010.4
20260903010204 59 271 5.0 8.0 0.00 0.10 0.01 96 1010.3
20260903005704 59 255 7.0 10.0 0.00 0.10 0.01 96 1010.4
20260903005203 59 263 7.0 12.0 0.00 0.10 0.01 96 1010.3
20260903004703 58 253 5.0 12.0 0.01 0.10 0.01 96 1010.4
20260903004204 58 250 6.0 12.0 0.01 0.10 0.01 95 1010.4
20260903003704 58 244 5.0 9.0 0.01 0.10 0.01 95 1010.2
20260903003204 58 252 5.0 9.0 0.01 0.10 0.01 95 1010.2
20260903002704 59 251 3.0 7.0 0.01 0.10 0.01 95 1010.2
20260903002204 59 256 5.0 9.0 0.01 0.10 0.01 95 1010.2
20260903001704 59 251 4.0 9.0 0.01 0.10 0.01 95 1010.3
20260903001204 59 251 5.0 7.0 0.01 0.10 0.01 95 1010.3
20260903000704 59 239 4.0 10.0 0.01 0.10 0.01 95 1010.2
20260903000205 59 241 5.0 10.0 0.01 0.10 0.01 95 1010.2
20260902235704 59 239 5.0 7.0 0.01 0.10 0.01 95 1010.2
20260902235204 59 243 5.0 9.0 0.01 0.10 0.01 95 1010.1
20260902234704 59 250 5.0 9.0 0.00 0.09 0.00 95 1010.0
20260902233703 60 264 5.0 10.0 0.00 0.09 0.00 94 1010.0
20260902233203 60 259 5.0 10.0 0.00 0.09 0.00 95 1009.9
20260902232704 60 257 7.0 12.0 0.00 0.09 0.00 95 1009.9
20260902232204 60 262 6.0 12.0 0.00 0.09 0.00 95 1010.0
20260902231704 60 264 7.0 13.0 0.00 0.09 0.00 95 1010.0
20260902231203 60 264 9.0 17.0 0.00 0.09 0.00 95 1009.9
20260902230205 60 251 10.0 15.0 0.00 0.09 0.00 95 1009.8
20260902225705 59 247 8.0 14.0 0.00 0.09 0.09 95 1009.8
20260902225204 59 253 8.0 13.0 0.01 0.09 0.09 96 1009.7
20260902223704 59 247 10.0 13.0 0.03 0.09 0.09 96 1009.6
20260902222704 59 255 9.0 15.0 0.03 0.09 0.09 96 1009.6
20260902222204 59 254 9.0 13.0 0.03 0.09 0.09 96 1009.6
20260902221704 59 266 6.0 12.0 0.03 0.09 0.09 95 1009.7
20260902221204 60 253 6.0 9.0 0.03 0.09 0.09 95 1009.7
20260902215704 60 245 6.0 10.0 0.03 0.09 0.09 95 1009.6
20260902215204 60 252 7.0 12.0 0.02 0.09 0.09 95 1009.6
20260902214704 60 252 7.0 12.0 0.02 0.08 0.08 95 1009.7
20260902214204 60 258 7.0 14.0 0.01 0.07 0.07 95 1009.7
20260902213204 60 264 9.0 13.0 0.00 0.06 0.06 95 1009.4
20260902212704 60 247 8.0 13.0 0.00 0.06 0.06 95 1009.4
20260902212203 60 255 9.0 14.0 0.00 0.06 0.06 95 1009.5
20260902211703 60 260 9.0 13.0 0.00 0.06 0.06 95 1009.5
20260902211203 60 257 10.0 15.0 0.00 0.06 0.06 95 1009.2
20260902210203 60 255 10.0 18.0 0.00 0.06 0.06 95 1009.2
20260902205704 60 253 13.0 20.0 0.00 0.06 0.06 95 1009.2
20260902205204 60 255 10.0 15.0 0.00 0.06 0.06 96 1009.0
20260902204704 60 265 10.0 18.0 0.00 0.06 0.06 96 1009.0
20260902204204 60 256 10.0 20.0 0.00 0.06 0.06 96 1009.0
20260902203703 60 269 12.0 18.0 0.00 0.06 0.06 96 1008.9
20260902203204 61 245 11.0 20.0 0.00 0.06 0.06 96 1008.8
20260902202203 61 251 14.0 20.0 0.00 0.06 0.06 96 1008.9
20260902201703 61 245 10.0 16.0 0.00 0.06 0.06 96 1008.7
20260902201204 61 257 10.0 20.0 0.00 0.06 0.06 96 1008.3
20260902200703 61 247 9.0 15.0 0.00 0.06 0.06 96 1008.5
20260902195704 61 240 10.0 16.0 0.00 0.06 0.06 96 1008.3
20260902194704 61 251 7.0 13.0 0.00 0.06 0.06 96 1008.5
20260902193704 61 250 10.0 17.0 0.01 0.06 0.06 96 1008.4
20260902192704 61 240 9.0 13.0 0.01 0.06 0.06 96 1008.0
20260902192204 61 233 7.0 13.0 0.01 0.06 0.06 96 1008.3
20260902191203 61 260 10.0 16.0 0.01 0.06 0.06 96 1008.3
20260902190704 61 240 8.0 14.0 0.01 0.06 0.06 96 1008.1
20260902190204 62 253 6.0 13.0 0.02 0.06 0.06 96 1008.2
20260902185703 62 252 8.0 12.0 0.02 0.06 0.06 96 1008.1
20260902185205 62 261 8.0 13.0 0.02 0.06 0.06 96 1008.3
20260902184704 62 243 9.0 13.0 0.02 0.06 0.06 96 1008.1
20260902184204 62 255 8.0 15.0 0.02 0.06 0.06 96 1008.0
20260902183203 62 234 9.0 14.0 0.01 0.06 0.06 96 1007.8
20260902182704 63 233 8.0 14.0 0.01 0.06 0.06 96 1007.8
20260902182205 63 228 7.0 15.0 0.01 0.06 0.06 96 1007.9
20260902181704 63 253 7.0 12.0 0.01 0.06 0.06 96 1008.0
20260902181205 63 235 9.0 15.0 0.01 0.06 0.06 96 1007.9
20260902180704 64 216 9.0 12.0 0.01 0.06 0.06 95 1007.6
20260902171205 64 216 9.0 12.0 0.00 0.05 0.05 95 1007.5
20260902165204 64 251 9.0 13.0 0.00 0.05 0.05 95 1007.6
20260902164704 64 238 10.0 17.0 0.00 0.05 0.05 95 1007.6
20260902164204 64 246 9.0 20.0 0.00 0.05 0.05 95 1007.6
20260902163703 64 240 8.0 15.0 0.00 0.05 0.05 95 1007.7
20260902163204 64 238 8.0 15.0 0.00 0.05 0.05 94 1007.5
20260902162704 64 234 9.0 14.0 0.00 0.05 0.05 94 1007.7
20260902162204 64 222 7.0 14.0 0.00 0.05 0.05 94 1007.7
20260902161704 64 213 5.0 17.0 0.00 0.05 0.05 94 1007.6
20260902161204 64 211 8.0 12.0 0.00 0.05 0.05 94 1007.6
20260902160704 64 213 7.0 12.0 0.00 0.05 0.05 93 1007.6
20260902155703 64 235 10.0 15.0 0.00 0.05 0.05 93 1007.5
20260902155203 64 279 9.0 14.0 0.00 0.05 0.05 93 1007.6
20260902154704 64 216 7.0 15.0 0.00 0.05 0.05 92 1007.5
20260902153704 65 234 10.0 16.0 0.00 0.05 0.05 92 1007.5
20260902153204 65 235 6.0 12.0 0.00 0.05 0.05 92 1007.4
20260902152703 65 248 8.0 14.0 0.00 0.05 0.05 92 1007.5
20260902152204 65 241 8.0 12.0 0.01 0.05 0.05 92 1007.7
20260902151704 65 247 9.0 14.0 0.01 0.05 0.05 92 1007.5
20260902151204 65 254 7.0 13.0 0.01 0.05 0.05 92 1007.7
20260902150704 65 240 10.0 14.0 0.01 0.06 0.05 93 1007.6
20260902150203 65 285 10.0 15.0 0.01 0.08 0.05 93 1007.7
20260902145704 64 271 6.0 14.0 0.01 0.18 0.05 93 1007.7
20260902144704 64 254 6.0 12.0 0.01 0.29 0.05 93 1007.8
20260902144204 64 244 9.0 14.0 0.01 0.30 0.05 93 1007.8
20260902143704 63 228 7.0 17.0 0.01 0.30 0.05 93 1007.7
20260902143205 63 241 8.0 16.0 0.01 0.31 0.05 93 1007.9
20260902142705 63 267 7.0 15.0 0.01 0.31 0.05 92 1007.8
20260902141704 64 260 11.0 17.0 0.00 0.31 0.04 92 1007.8
20260902141204 64 260 9.0 14.0 0.00 0.35 0.04 92 1007.8
20260902135703 64 225 13.0 25.0 0.00 0.39 0.04 92 1007.9
20260902135204 64 269 10.0 16.0 0.00 0.40 0.04 92 1007.7
20260902134704 64 251 12.0 21.0 0.00 0.41 0.04 92 1007.8
20260902134204 65 266 10.0 20.0 0.00 0.43 0.04 92 1007.9